This is the latest recevied weather packets stored in our database for station/object WC4PEM-1. If no packets are shown the sender has not sent any weather packets the latest 10 day(s).
| Time | Temp. | Humidity | Pressure | Rain* | Wind** | Luminosity | Snow |
|---|---|---|---|---|---|---|---|
| 1777855408 | 21.67° C | 70% | 1015.2 hPa | 0 mm | - | 0 W/m² | - |
| 1777855108 | 21.67° C | 70% | 1015.2 hPa | 0 mm | - | 0 W/m² | - |
| 1777854808 | 22.22° C | 70% | 1015.2 hPa | 0 mm | - | 0 W/m² | - |
| 1777854508 | 22.22° C | 69% | 1015 hPa | 0 mm | - | 0 W/m² | - |
| 1777854208 | 22.22° C | 69% | 1015.1 hPa | 0 mm | - | 0 W/m² | - |
| 1777853908 | 22.22° C | 69% | 1014.9 hPa | 0 mm | - | 0 W/m² | - |
| 1777853608 | 22.22° C | 69% | 1014.8 hPa | 0 mm | - | 0 W/m² | - |
| 1777853308 | 22.22° C | 68% | 1015 hPa | 0 mm | - | 0 W/m² | - |
| 1777853008 | 22.22° C | 68% | 1014.9 hPa | 0 mm | - | 0 W/m² | - |
| 1777852708 | 22.78° C | 68% | 1014.8 hPa | 0 mm | - | 0 W/m² | - |
| 1777852408 | 22.78° C | 68% | 1014.7 hPa | 0 mm | - | 11 W/m² | - |
| 1777852108 | 22.78° C | 67% | 1014.6 hPa | 0 mm | - | 16 W/m² | - |
| 1777851808 | 22.78° C | 67% | 1014.6 hPa | 0 mm | - | 23 W/m² | - |
| 1777851508 | 23.33° C | 67% | 1014.6 hPa | 0 mm | - | 35 W/m² | - |
| 1777851208 | 23.33° C | 67% | 1014.7 hPa | 0 mm | - | 42 W/m² | - |
| 1777850908 | 23.33° C | 67% | 1014.6 hPa | 0 mm | - | 53 W/m² | - |
| 1777850608 | 23.33° C | 67% | 1014.6 hPa | 0 mm | - | 47 W/m² | - |
| 1777850416 | 23.33° C | 67% | 1014.6 hPa | 0 mm | - | 49 W/m² | - |
| 1777850308 | 23.33° C | 67% | 1014.6 hPa | 0 mm | - | 49 W/m² | - |
| 1777850290 | 23.33° C | 67% | 1014.5 hPa | 0 mm | - | 54 W/m² | - |
| 1777850008 | 23.33° C | 67% | 1014.5 hPa | 0 mm | - | 54 W/m² | - |
| 1777849708 | 23.33° C | 67% | 1014.5 hPa | 0 mm | - | 58 W/m² | - |
| 1777849408 | 23.33° C | 66% | 1014.5 hPa | 0 mm | - | 72 W/m² | - |
| 1777849108 | 23.89° C | 66% | 1014.5 hPa | 0 mm | - | 83 W/m² | - |
| 1777848808 | 23.33° C | 66% | 1014.6 hPa | 0 mm | - | 74 W/m² | - |
* Rain latest hour (hover to see other rain measurements)
** Current wind speed in m/s (hover to see current wind gust speed)